ProjectID,Date,Electric Generation,Electric Utility Import,Facility Electric Load
,YYYY-MM-DD,kW,kW,kW
29,2007-08-20,0.0,,0.0
29,2007-08-21,0.0,,0.0
29,2007-08-22,0.0,,0.0
29,2007-08-23,0.0,,0.0
29,2007-08-24,0.0,,0.0
29,2007-08-25,0.0,,0.0
29,2007-08-26,0.0,,0.0
29,2007-08-27,0.0,,0.0
29,2007-08-28,0.0,,0.0
29,2007-08-29,15.551041666666668,0.0,15.551041666666668
29,2007-08-30,417.8260416666667,0.0,417.8260416666667
29,2007-08-31,415.37079166666666,0.0,415.37079166666666
29,2007-09-01,364.571375,0.0,364.571375
29,2007-09-02,323.6745833333333,0.0,323.6745833333333
29,2007-09-03,364.126375,0.0,364.126375
29,2007-09-04,463.24133333333333,0.0,463.24133333333333
29,2007-09-05,495.44420833333334,0.0,495.44420833333334
29,2007-09-06,502.61854166666666,0.0,502.61854166666666
29,2007-09-07,522.018875,0.0,522.018875
29,2007-09-08,444.41291666666666,0.0,444.41291666666666
29,2007-09-09,351.29287500000004,0.0,351.29287500000004
29,2007-09-10,478.17,0.0,478.17
29,2007-09-11,569.8515,0.0,569.8515
29,2007-09-12,409.16745833333334,0.0,409.16745833333334
29,2007-09-13,351.6789166666667,0.0,351.6789166666667
29,2007-09-14,346.06654166666664,0.0,346.06654166666664
29,2007-09-15,253.91254166666667,0.0,253.91254166666667
29,2007-09-16,237.944,0.0,237.944
29,2007-09-17,387.89633333333336,0.0,387.89633333333336
29,2007-09-18,395.0101666666667,0.0,395.0101666666667
29,2007-09-19,63.365208333333335,0.0,63.365208333333335
29,2007-09-20,0.0,0.0,0.0
29,2007-09-21,0.0,0.0,0.0
29,2007-09-22,0.0,0.0,0.0
29,2007-09-23,0.0,0.0,0.0
29,2007-09-24,10.939166666666667,0.0,10.939166666666667
29,2007-09-25,505.31370833333335,0.0,505.31370833333335
29,2007-09-26,346.89750000000004,0.0,346.89750000000004
29,2007-09-27,0.0,0.0,0.0
29,2007-09-28,0.0,0.0,0.0
29,2007-09-29,0.0,0.0,0.0
29,2007-09-30,0.0,0.0,0.0
29,2007-10-01,0.0,0.0,0.0
29,2007-10-02,0.0,0.0,0.0
29,2007-10-03,0.0,0.0,0.0
29,2007-10-04,0.0,0.0,0.0
29,2007-10-05,0.0,0.0,0.0
29,2007-10-06,0.0,0.0,0.0
29,2007-10-07,0.0,0.0,0.0
29,2007-10-08,0.0,0.0,0.0
29,2007-10-09,0.0,0.0,0.0
29,2007-10-10,11.608125000000001,0.0,11.608125000000001
29,2007-10-11,402.0967083333333,0.0,402.0967083333333
29,2007-10-12,380.52875,0.0,380.52875
29,2007-10-13,283.86404166666665,0.0,283.86404166666665
29,2007-10-14,265.82458333333335,0.0,265.82458333333335
29,2007-10-15,403.88041666666663,0.0,403.88041666666663
29,2007-10-16,396.503,0.0,396.503
29,2007-10-17,417.92266666666666,0.0,417.92266666666666
29,2007-10-18,422.72504166666664,0.0,422.72504166666664
29,2007-10-19,381.54866666666663,0.0,381.54866666666663
29,2007-10-20,280.14720833333337,0.0,280.14720833333337
29,2007-10-21,247.94125,0.0,247.94125
29,2007-10-22,403.70091666666667,0.0,403.70091666666667
29,2007-10-23,408.59083333333336,0.0,408.59083333333336
29,2007-10-24,435.47566666666665,0.0,435.47566666666665
29,2007-10-25,177.852625,0.0,177.852625
29,2007-10-26,359.70587500000005,0.0,359.70587500000005
29,2007-10-27,274.37,0.0,274.37
29,2007-10-28,252.94770833333334,0.0,252.94770833333334
29,2007-10-29,394.09270833333335,0.0,394.09270833333335
29,2007-10-30,404.884,0.0,404.884
29,2007-10-31,434.11941666666667,0.0,434.11941666666667
29,2007-11-01,427.7135416666667,0.0,427.7135416666667
29,2007-11-02,400.2885833333333,0.0,400.2885833333333
29,2007-11-03,281.28191666666663,0.0,281.28191666666663
29,2007-11-04,277.8856666666667,0.0,277.8856666666667
29,2007-11-05,401.9447083333334,0.0,401.9447083333334
29,2007-11-06,410.556875,0.0,410.556875
29,2007-11-07,429.21925000000005,0.0,429.21925000000005
29,2007-11-08,432.7681666666667,0.0,432.7681666666667
29,2007-11-09,403.6801666666667,0.0,403.6801666666667
29,2007-11-10,299.33391666666665,0.0,299.33391666666665
29,2007-11-11,289.8869583333333,0.0,289.8869583333333
29,2007-11-12,301.73533333333336,0.0,301.73533333333336
29,2007-11-13,431.7095,0.0,431.7095
29,2007-11-14,435.80766666666665,0.0,435.80766666666665
29,2007-11-15,452.54375,0.0,452.54375
29,2007-11-16,83.15170833333333,0.0,83.15170833333333
29,2007-11-17,0.0,0.0,0.0
29,2007-11-18,0.0,0.0,0.0
29,2007-11-19,0.0,0.0,0.0
29,2007-11-20,0.0,0.0,0.0
29,2007-11-21,0.0,0.0,0.0
29,2007-11-22,0.0,0.0,0.0
29,2007-11-23,0.0,0.0,0.0
29,2007-11-24,0.0,0.0,0.0
29,2007-11-25,0.0,0.0,0.0
29,2007-11-26,0.0,0.0,0.0
29,2007-11-27,0.0,0.0,0.0
29,2007-11-28,0.0,0.0,0.0
29,2007-11-29,0.0,0.0,0.0
29,2007-11-30,0.0,0.0,0.0
29,2007-12-01,0.0,0.0,0.0
29,2007-12-02,0.0,0.0,0.0
29,2007-12-03,0.0,0.0,0.0
29,2007-12-04,0.0,0.0,0.0
29,2007-12-05,0.0,0.0,0.0
29,2007-12-06,0.0,0.0,0.0
29,2007-12-07,0.0,0.0,0.0
29,2007-12-08,0.0,0.0,0.0
29,2007-12-09,0.0,0.0,0.0
29,2007-12-10,0.0,0.0,0.0
29,2007-12-11,0.0,0.0,0.0
29,2007-12-12,0.0,0.0,0.0
29,2007-12-13,0.0,0.0,0.0
29,2007-12-14,207.65675,0.0,207.65675
29,2007-12-15,0.0,0.0,0.0
29,2007-12-16,0.0,0.0,0.0
29,2007-12-17,0.0,0.0,0.0
29,2007-12-18,0.0,0.0,0.0
29,2007-12-19,0.0,0.0,0.0
29,2007-12-20,0.0,0.0,0.0
29,2007-12-21,0.0,0.0,0.0
29,2007-12-22,0.0,0.0,0.0
29,2007-12-23,0.0,0.0,0.0
29,2007-12-24,0.0,0.0,0.0
29,2007-12-25,0.0,0.0,0.0
29,2007-12-26,0.0,0.0,0.0
29,2007-12-27,0.0,0.0,0.0
29,2007-12-28,0.0,0.0,0.0
29,2007-12-29,0.0,0.0,0.0
29,2007-12-30,0.0,0.0,0.0
29,2007-12-31,0.0,0.0,0.0
29,2008-01-01,0.0,0.0,0.0
29,2008-01-02,0.0,0.0,0.0
29,2008-01-03,0.0,0.0,0.0
29,2008-01-04,0.0,0.0,0.0
29,2008-01-05,0.0,0.0,0.0
29,2008-01-06,0.0,0.0,0.0
29,2008-01-07,0.0,0.0,0.0
29,2008-01-08,0.0,0.0,0.0
29,2008-01-09,0.0,0.0,0.0
29,2008-01-10,0.0,0.0,0.0
29,2008-01-11,0.0,0.0,0.0
29,2008-01-12,0.0,0.0,0.0
29,2008-01-13,0.0,0.0,0.0
29,2008-01-14,0.0,0.0,0.0
29,2008-01-15,0.0,0.0,0.0
29,2008-01-16,0.0,0.0,0.0
29,2008-01-17,0.0,0.0,0.0
29,2008-01-18,0.0,0.0,0.0
29,2008-01-19,0.0,0.0,0.0
29,2008-01-20,0.0,0.0,0.0
29,2008-01-21,0.0,0.0,0.0
29,2008-01-22,0.0,0.0,0.0
29,2008-01-23,0.0,0.0,0.0
29,2008-01-24,0.0,0.0,0.0
29,2008-01-25,0.0,0.0,0.0
29,2008-01-26,0.0,0.0,0.0
29,2008-01-27,0.0,0.0,0.0
29,2008-01-28,0.0,0.0,0.0
29,2008-01-29,0.0,0.0,0.0
29,2008-01-30,0.0,0.0,0.0
29,2008-01-31,0.0,0.0,0.0
29,2008-02-01,0.0,0.0,0.0
29,2008-02-02,0.0,0.0,0.0
29,2008-02-03,0.0,0.0,0.0
29,2008-02-04,0.0,0.0,0.0
29,2008-02-05,0.0,0.0,0.0
29,2008-02-06,0.0,0.0,0.0
29,2008-02-07,0.0,0.0,0.0
29,2008-02-08,0.0,0.0,0.0
29,2008-02-09,0.0,0.0,0.0
29,2008-02-10,0.0,0.0,0.0
29,2008-02-11,0.0,0.0,0.0
29,2008-02-12,0.0,0.0,0.0
29,2008-02-13,0.0,0.0,0.0
29,2008-02-14,0.0,0.0,0.0
29,2008-02-15,0.0,0.0,0.0
29,2008-02-16,0.0,0.0,0.0
29,2008-02-17,0.0,0.0,0.0
29,2008-02-18,0.0,0.0,0.0
29,2008-02-19,0.0,0.0,0.0
29,2008-02-20,0.0,0.0,0.0
29,2008-02-21,0.0,0.0,0.0
29,2008-02-22,0.0,0.0,0.0
29,2008-02-23,0.0,0.0,0.0
29,2008-02-24,0.0,0.0,0.0
29,2008-02-25,0.0,0.0,0.0
29,2008-02-26,0.0,0.0,0.0
29,2008-02-27,423.217875,0.0,423.217875
29,2008-02-28,444.77258333333333,0.0,444.77258333333333
29,2008-02-29,0.0,,0.0
29,2008-03-01,279.21408333333335,0.0,279.21408333333335
29,2008-03-02,282.58875,0.0,282.58875
29,2008-03-03,439.43891666666667,0.0,439.43891666666667
29,2008-03-04,440.0536666666667,0.0,440.0536666666667
29,2008-03-05,461.4052916666667,0.0,461.4052916666667
29,2008-03-06,370.27137500000003,0.0,370.27137500000003
29,2008-03-07,0.0,0.0,0.0
29,2008-03-08,0.0,0.0,0.0
29,2008-03-09,0.0,0.0,0.0
29,2008-03-10,0.0,0.0,0.0
29,2008-03-11,0.0,0.0,0.0
29,2008-03-12,0.0,0.0,0.0
29,2008-03-13,0.0,0.0,0.0
29,2008-03-14,0.0,0.0,0.0
29,2008-03-15,0.0,0.0,0.0
29,2008-03-16,0.0,0.0,0.0
29,2008-03-17,0.0,0.0,0.0
29,2008-03-18,0.0,0.0,0.0
29,2008-03-19,0.0,0.0,0.0
29,2008-03-20,0.0,0.0,0.0
29,2008-03-21,0.0,0.0,0.0
29,2008-03-22,0.0,0.0,0.0
29,2008-03-23,0.0,0.0,0.0
29,2008-03-24,0.0,0.0,0.0
29,2008-03-25,0.0,0.0,0.0
29,2008-03-26,0.0,0.0,0.0
29,2008-03-27,0.0,0.0,0.0
29,2008-03-28,0.0,0.0,0.0
29,2008-03-29,0.0,0.0,0.0
29,2008-03-30,0.0,0.0,0.0
29,2008-03-31,0.0,0.0,0.0
29,2008-04-01,0.0,0.0,0.0
29,2008-04-02,0.0,0.0,0.0
29,2008-04-03,0.0,0.0,0.0
29,2008-04-04,0.0,0.0,0.0
29,2008-04-05,0.0,0.0,0.0
29,2008-04-06,0.0,0.0,0.0
29,2008-04-07,0.0,0.0,0.0
29,2008-04-08,0.0,0.0,0.0
29,2008-04-09,10.655833333333334,0.0,10.655833333333334
29,2008-04-10,407.098,0.0,407.098
29,2008-04-11,295.84700000000004,0.0,295.84700000000004
29,2008-04-12,248.7435,0.0,248.7435
29,2008-04-13,270.951625,0.0,270.951625
29,2008-04-14,304.482875,0.0,304.482875
29,2008-04-15,303.3390416666667,0.0,303.3390416666667
29,2008-04-16,311.66433333333333,0.0,311.66433333333333
29,2008-04-17,175.79125,0.0,175.79125
29,2008-04-18,0.0,0.0,0.0
29,2008-04-19,0.0,0.0,0.0
29,2008-04-20,0.0,0.0,0.0
29,2008-04-21,0.0,0.0,0.0
29,2008-04-22,10.59625,0.0,10.59625
29,2008-04-23,399.802375,0.0,399.802375
29,2008-04-24,394.2884583333334,0.0,394.2884583333334
29,2008-04-25,402.3844583333334,0.0,402.3844583333334
29,2008-04-26,230.41320833333336,0.0,230.41320833333336
29,2008-04-27,232.93891666666664,0.0,232.93891666666664
29,2008-04-28,413.93329166666666,0.0,413.93329166666666
29,2008-04-29,417.6975,0.0,417.6975
29,2008-04-30,422.6277083333334,0.0,422.6277083333334
29,2008-05-01,417.05508333333336,0.0,417.05508333333336
29,2008-05-02,408.123,0.0,408.123
29,2008-05-03,290.08320833333335,0.0,290.08320833333335
29,2008-05-04,226.424,0.0,226.424
29,2008-05-05,0.0,0.0,0.0
29,2008-05-06,0.0,0.0,0.0
29,2008-05-07,0.0,0.0,0.0
29,2008-05-08,0.0,0.0,0.0
29,2008-05-09,0.0,0.0,0.0
29,2008-05-10,0.0,0.0,0.0
29,2008-05-11,0.0,0.0,0.0
29,2008-05-12,0.0,0.0,0.0
29,2008-05-13,181.89133333333334,0.0,181.89133333333334
29,2008-05-14,270.50708333333336,0.0,270.50708333333336
29,2008-05-15,275.0,0.0,275.0
29,2008-05-16,275.0,0.0,275.0
29,2008-05-17,275.0,0.0,275.0
29,2008-05-18,275.0,0.0,275.0
29,2008-05-19,194.79166666666666,0.0,194.79166666666666
29,2008-05-20,275.0,0.0,275.0
29,2008-05-21,264.27375,0.0,264.27375
29,2008-05-22,275.0,0.0,275.0
29,2008-05-23,275.0,0.0,275.0
29,2008-05-24,275.0,0.0,275.0
29,2008-05-25,275.0,0.0,275.0
29,2008-05-26,275.0,0.0,275.0
29,2008-05-27,125.24374999999999,0.0,125.24374999999999
29,2008-05-28,0.0,0.0,0.0
29,2008-05-29,0.0,0.0,0.0
29,2008-05-30,0.0,0.0,0.0
29,2008-05-31,0.0,0.0,0.0
29,2008-06-01,0.0,0.0,0.0
29,2008-06-02,0.0,0.0,0.0
29,2008-06-03,0.0,0.0,0.0
29,2008-06-04,0.0,0.0,0.0
29,2008-06-05,0.0,0.0,0.0
29,2008-06-06,0.0,0.0,0.0
29,2008-06-07,0.0,0.0,0.0
29,2008-06-08,0.0,0.0,0.0
29,2008-06-09,0.0,0.0,0.0
29,2008-06-10,0.0,0.0,0.0
29,2008-06-11,0.0,0.0,0.0
29,2008-06-12,0.0,0.0,0.0
29,2008-06-13,0.0,0.0,0.0
29,2008-06-14,0.0,0.0,0.0
29,2008-06-15,0.0,0.0,0.0
29,2008-06-16,0.0,0.0,0.0
29,2008-06-17,0.0,0.0,0.0
29,2008-06-18,0.0,0.0,0.0
29,2008-06-19,0.0,0.0,0.0
29,2008-06-20,0.0,0.0,0.0
29,2008-06-21,0.0,0.0,0.0
29,2008-06-22,0.0,0.0,0.0
29,2008-06-23,0.0,0.0,0.0
29,2008-06-24,0.0,0.0,0.0
29,2008-06-25,0.0,0.0,0.0
29,2008-06-26,0.0,0.0,0.0
29,2008-06-27,0.0,0.0,0.0
29,2008-06-28,0.0,0.0,0.0
29,2008-06-29,0.0,0.0,0.0
29,2008-06-30,0.0,0.0,0.0
29,2008-07-01,0.0,0.0,0.0
29,2008-07-02,0.0,0.0,0.0
29,2008-07-03,0.0,0.0,0.0
29,2008-07-04,0.0,0.0,0.0
29,2008-07-05,0.0,0.0,0.0
29,2008-07-06,0.0,0.0,0.0
29,2008-07-07,0.0,0.0,0.0
29,2008-07-08,0.0,0.0,0.0
29,2008-07-09,0.0,0.0,0.0
29,2008-07-10,194.3255,0.0,194.3255
29,2008-07-11,269.93012500000003,0.0,269.93012500000003
29,2008-07-12,302.2103333333333,0.0,302.2103333333333
29,2008-07-13,294.16225000000003,0.0,294.16225000000003
29,2008-07-14,312.5565833333333,0.0,312.5565833333333
29,2008-07-15,237.72375,0.0,237.72375
29,2008-07-16,311.8507916666667,0.0,311.8507916666667
29,2008-07-17,330.333125,0.0,330.333125
29,2008-07-18,306.77504166666665,0.0,306.77504166666665
29,2008-07-19,337.83570833333334,0.0,337.83570833333334
29,2008-07-20,299.2556666666667,0.0,299.2556666666667
29,2008-07-21,343.067875,0.0,343.067875
29,2008-07-22,349.35620833333337,0.0,349.35620833333337
29,2008-07-23,321.30554166666667,0.0,321.30554166666667
29,2008-07-24,313.35420833333336,0.0,313.35420833333336
29,2008-07-25,281.13675,0.0,281.13675
29,2008-07-26,293.59025,0.0,293.59025
29,2008-07-27,271.8165833333333,0.0,271.8165833333333
29,2008-07-28,320.580375,0.0,320.580375
29,2008-07-29,335.093125,0.0,335.093125
29,2008-07-30,330.94329166666665,0.0,330.94329166666665
29,2008-07-31,318.03945833333336,0.0,318.03945833333336
29,2008-08-01,294.78291666666667,0.0,294.78291666666667
29,2008-08-02,270.8414583333333,0.0,270.8414583333333
29,2008-08-03,264.0650416666667,0.0,264.0650416666667
29,2008-08-04,318.7860416666667,0.0,318.7860416666667
29,2008-08-05,282.26579166666664,0.0,282.26579166666664
29,2008-08-06,281.22054166666663,0.0,281.22054166666663
29,2008-08-07,258.060625,0.0,258.060625
29,2008-08-08,235.49704166666666,0.0,235.49704166666666
29,2008-08-09,216.89200000000002,0.0,216.89200000000002
29,2008-08-10,222.636625,0.0,222.636625
29,2008-08-11,247.18491666666668,0.0,247.18491666666668
29,2008-08-12,250.78412500000002,0.0,250.78412500000002
29,2008-08-13,253.792,0.0,253.792
29,2008-08-14,239.92254166666666,0.0,239.92254166666666
29,2008-08-15,241.40487499999998,0.0,241.40487499999998
29,2008-08-16,222.56041666666667,0.0,222.56041666666667
29,2008-08-17,228.28891666666667,0.0,228.28891666666667
29,2008-08-18,297.5912083333333,0.0,297.5912083333333
29,2008-08-19,286.33075,0.0,286.33075
29,2008-08-20,233.07341666666665,0.0,233.07341666666665
29,2008-08-21,209.9009166666667,0.0,209.9009166666667
29,2008-08-22,259.0156666666667,0.0,259.0156666666667
29,2008-08-23,240.28095833333336,0.0,240.28095833333336
29,2008-08-24,219.49749999999997,0.0,219.49749999999997
29,2008-08-25,288.4198333333333,0.0,288.4198333333333
29,2008-08-26,272.273125,0.0,272.273125
29,2008-08-27,317.973125,0.0,317.973125
29,2008-08-28,317.379375,0.0,317.379375
29,2008-08-29,313.10854166666667,0.0,313.10854166666667
29,2008-08-30,286.73316666666665,0.0,286.73316666666665
29,2008-08-31,269.58033333333333,0.0,269.58033333333333
29,2008-09-01,300.757,0.0,300.757
29,2008-09-02,391.5205416666667,0.0,391.5205416666667
29,2008-09-03,496.99533333333335,0.0,496.99533333333335
29,2008-09-04,452.4090833333333,0.0,452.4090833333333
29,2008-09-05,443.8043333333333,0.0,443.8043333333333
29,2008-09-06,292.15233333333333,0.0,292.15233333333333
29,2008-09-07,208.26329166666667,0.0,208.26329166666667
29,2008-09-08,437.28320833333333,0.0,437.28320833333333
29,2008-09-09,430.61404166666665,0.0,430.61404166666665
29,2008-09-10,444.74345833333336,0.0,444.74345833333336
29,2008-09-11,442.70250000000004,0.0,442.70250000000004
29,2008-09-12,426.86591666666664,0.0,426.86591666666664
29,2008-09-13,307.87304166666667,0.0,307.87304166666667
29,2008-09-14,231.2793333333333,0.0,231.2793333333333
29,2008-09-15,450.04833333333335,0.0,450.04833333333335
29,2008-09-16,438.56595833333336,0.0,438.56595833333336
29,2008-09-17,435.4945,0.0,435.4945
29,2008-09-18,457.028125,0.0,457.028125
29,2008-09-19,435.7498333333333,0.0,435.7498333333333
29,2008-09-20,308.3935,0.0,308.3935
29,2008-09-21,271.69345833333335,0.0,271.69345833333335
29,2008-09-22,453.0035833333333,0.0,453.0035833333333
29,2008-09-23,446.81183333333337,0.0,446.81183333333337
29,2008-09-24,473.841125,0.0,473.841125
29,2008-09-25,476.03225,0.0,476.03225
29,2008-09-26,481.43179166666664,0.0,481.43179166666664
29,2008-09-27,339.455625,0.0,339.455625
29,2008-09-28,285.672375,0.0,285.672375
29,2008-09-29,465.6308333333333,0.0,465.6308333333333
29,2008-09-30,452.23179166666665,0.0,452.23179166666665
29,2008-10-01,470.65875,0.0,470.65875
29,2008-10-02,443.07762499999995,0.0,443.07762499999995
29,2008-10-03,441.459875,0.0,441.459875
29,2008-10-04,304.4412916666667,0.0,304.4412916666667
29,2008-10-05,278.27816666666666,0.0,278.27816666666666
29,2008-10-06,419.43983333333335,0.0,419.43983333333335
29,2008-10-07,402.0205416666667,0.0,402.0205416666667
29,2008-10-08,417.2757916666667,0.0,417.2757916666667
29,2008-10-09,416.1097916666667,0.0,416.1097916666667
29,2008-10-10,392.41775,0.0,392.41775
29,2008-10-11,267.5434166666667,0.0,267.5434166666667
29,2008-10-12,217.146875,0.0,217.146875
29,2008-10-13,223.52279166666665,0.0,223.52279166666665
29,2008-10-14,422.3052916666666,0.0,422.3052916666666
29,2008-10-15,441.7823333333333,0.0,441.7823333333333
29,2008-10-16,452.92825,0.0,452.92825
29,2008-10-17,434.45250000000004,0.0,434.45250000000004
29,2008-10-18,307.09883333333335,0.0,307.09883333333335
29,2008-10-19,277.55808333333334,0.0,277.55808333333334
29,2008-10-20,426.06637500000005,0.0,426.06637500000005
29,2008-10-21,397.5664166666666,0.0,397.5664166666666
29,2008-10-22,406.83254166666666,0.0,406.83254166666666
29,2008-10-23,417.494375,0.0,417.494375
29,2008-10-24,422.5165416666667,0.0,422.5165416666667
29,2008-10-25,289.575,0.0,289.575
29,2008-10-26,248.20870833333333,0.0,248.20870833333333
29,2008-10-27,406.78529166666664,0.0,406.78529166666664
29,2008-10-28,396.3235833333333,0.0,396.3235833333333
29,2008-10-29,405.54920833333335,0.0,405.54920833333335
29,2008-10-30,416.089625,0.0,416.089625
29,2008-10-31,401.29920833333335,0.0,401.29920833333335
29,2008-11-01,287.88216666666665,0.0,287.88216666666665
29,2008-11-02,227.69758333333334,0.0,227.69758333333334
29,2008-11-03,419.522375,0.0,419.522375
29,2008-11-04,398.0372916666667,0.0,398.0372916666667
29,2008-11-05,399.4785416666667,0.0,399.4785416666667
29,2008-11-06,386.4224166666667,0.0,386.4224166666667
29,2008-11-07,407.2718333333333,0.0,407.2718333333333
29,2008-11-08,240.13091666666665,0.0,240.13091666666665
29,2008-11-09,200.65324999999999,0.0,200.65324999999999
29,2008-11-10,276.95712499999996,0.0,276.95712499999996
29,2008-11-11,217.66104166666665,0.0,217.66104166666665
29,2008-11-12,400.1594583333333,0.0,400.1594583333333
29,2008-11-13,400.6829583333333,0.0,400.6829583333333
29,2008-11-14,402.78341666666665,0.0,402.78341666666665
29,2008-11-15,259.04220833333335,0.0,259.04220833333335
29,2008-11-16,215.23433333333332,0.0,215.23433333333332
29,2008-11-17,401.9357916666667,0.0,401.9357916666667
29,2008-11-18,398.266375,0.0,398.266375
29,2008-11-19,400.90066666666667,0.0,400.90066666666667
29,2008-11-20,405.5947083333333,0.0,405.5947083333333
29,2008-11-21,391.4395833333333,0.0,391.4395833333333
29,2008-11-22,259.196625,0.0,259.196625
29,2008-11-23,234.11625,0.0,234.11625
29,2008-11-24,434.479,0.0,434.479
29,2008-11-25,389.42154166666666,0.0,389.42154166666666
29,2008-11-26,219.42012499999998,0.0,219.42012499999998
29,2008-11-27,213.494625,0.0,213.494625
29,2008-11-28,225.59845833333335,0.0,225.59845833333335
29,2008-11-29,254.73345833333335,0.0,254.73345833333335
29,2008-11-30,227.630375,0.0,227.630375
29,2008-12-01,426.7810833333333,0.0,426.7810833333333
29,2008-12-02,417.19966666666664,0.0,417.19966666666664
29,2008-12-03,403.6703333333333,0.0,403.6703333333333
29,2008-12-04,410.5869583333333,0.0,410.5869583333333
29,2008-12-05,411.50125,0.0,411.50125
29,2008-12-06,280.29445833333335,0.0,280.29445833333335
29,2008-12-07,229.26466666666667,0.0,229.26466666666667
29,2008-12-08,420.4073333333333,0.0,420.4073333333333
29,2008-12-09,401.52254166666665,0.0,401.52254166666665
29,2008-12-10,415.5809166666666,0.0,415.5809166666666
29,2008-12-11,387.221,0.0,387.221
29,2008-12-12,275.65791666666667,0.0,275.65791666666667
29,2008-12-13,271.95595833333334,0.0,271.95595833333334
29,2008-12-14,237.61475,0.0,237.61475
29,2008-12-15,413.5999583333333,0.0,413.5999583333333
29,2008-12-16,417.606375,0.0,417.606375
29,2008-12-17,400.4604583333333,0.0,400.4604583333333
29,2008-12-18,424.9011666666667,0.0,424.9011666666667
29,2008-12-19,364.10437499999995,0.0,364.10437499999995
29,2008-12-20,278.66945833333335,0.0,278.66945833333335
29,2008-12-21,249.09074999999999,0.0,249.09074999999999
29,2008-12-22,295.51529166666666,0.0,295.51529166666666
29,2008-12-23,292.6734583333333,0.0,292.6734583333333
29,2008-12-24,267.12779166666667,0.0,267.12779166666667
29,2008-12-25,260.44262499999996,0.0,260.44262499999996
29,2008-12-26,268.61616666666663,0.0,268.61616666666663
29,2008-12-27,268.741125,0.0,268.741125
29,2008-12-28,243.91287499999999,0.0,243.91287499999999
29,2008-12-29,295.033875,0.0,295.033875
29,2008-12-30,286.76466666666664,0.0,286.76466666666664
29,2008-12-31,270.659,0.0,270.659
29,2009-01-01,259.00516666666664,0.0,259.00516666666664
29,2009-01-02,294.9736666666667,0.0,294.9736666666667
29,2009-01-03,272.8395,0.0,272.8395
29,2009-01-04,258.3312916666667,0.0,258.3312916666667
29,2009-01-05,397.0794166666667,0.0,397.0794166666667
29,2009-01-06,416.13208333333336,0.0,416.13208333333336
29,2009-01-07,281.04975,0.0,281.04975
29,2009-01-08,379.83279166666665,0.0,379.83279166666665
29,2009-01-09,418.9314583333333,0.0,418.9314583333333
29,2009-01-10,282.791125,0.0,282.791125
29,2009-01-11,251.55050000000003,0.0,251.55050000000003
29,2009-01-12,413.7672083333334,0.0,413.7672083333334
29,2009-01-13,424.26366666666667,0.0,424.26366666666667
29,2009-01-14,424.87975,0.0,424.87975
29,2009-01-15,424.25895833333334,0.0,424.25895833333334
29,2009-01-16,416.74825000000004,0.0,416.74825000000004
29,2009-01-17,285.82570833333335,0.0,285.82570833333335
29,2009-01-18,253.19224999999997,0.0,253.19224999999997
29,2009-01-19,281.3520833333333,0.0,281.3520833333333
29,2009-01-20,422.824875,0.0,422.824875
29,2009-01-21,426.67325,0.0,426.67325
29,2009-01-22,434.50458333333336,0.0,434.50458333333336
29,2009-01-23,408.57745833333337,0.0,408.57745833333337
29,2009-01-24,293.491375,0.0,293.491375
29,2009-01-25,265.3858333333333,0.0,265.3858333333333
29,2009-01-26,423.99291666666664,0.0,423.99291666666664
29,2009-01-27,420.65274999999997,0.0,420.65274999999997
29,2009-01-28,285.2439583333333,0.0,285.2439583333333
29,2009-01-29,430.6114583333333,0.0,430.6114583333333
29,2009-01-30,413.9177916666667,0.0,413.9177916666667
29,2009-01-31,284.89091666666667,0.0,284.89091666666667
29,2009-02-01,245.8060833333333,0.0,245.8060833333333
29,2009-02-02,415.7260416666666,0.0,415.7260416666666
29,2009-02-03,420.6229583333333,0.0,420.6229583333333
29,2009-02-04,424.494125,0.0,424.494125
29,2009-02-05,421.04833333333335,0.0,421.04833333333335
29,2009-02-06,416.776875,0.0,416.776875
29,2009-02-07,257.55358333333334,0.0,257.55358333333334
29,2009-02-08,224.29004166666667,0.0,224.29004166666667
29,2009-02-09,401.1385416666667,0.0,401.1385416666667
29,2009-02-10,402.25066666666663,0.0,402.25066666666663
29,2009-02-11,409.4529583333333,0.0,409.4529583333333
29,2009-02-12,419.8904166666667,0.0,419.8904166666667
29,2009-02-13,403.03770833333334,0.0,403.03770833333334
29,2009-02-14,276.5978333333333,0.0,276.5978333333333
29,2009-02-15,262.226875,0.0,262.226875
29,2009-02-16,290.76516666666663,0.0,290.76516666666663
29,2009-02-17,297.2510833333333,0.0,297.2510833333333
29,2009-02-18,300.84341666666666,0.0,300.84341666666666
29,2009-02-19,291.9505,0.0,291.9505
29,2009-02-20,292.31395833333335,0.0,292.31395833333335
29,2009-02-21,265.37975,0.0,265.37975
29,2009-02-22,232.1772083333333,0.0,232.1772083333333
29,2009-02-23,411.8313333333333,0.0,411.8313333333333
29,2009-02-24,421.27458333333334,0.0,421.27458333333334
29,2009-02-25,407.917,0.0,407.917
29,2009-02-26,406.557125,0.0,406.557125
29,2009-02-27,394.3457916666667,0.0,394.3457916666667
29,2009-02-28,261.61695833333334,0.0,261.61695833333334
29,2009-03-01,233.11704166666667,0.0,233.11704166666667
29,2009-03-02,404.66200000000003,0.0,404.66200000000003
29,2009-03-03,416.0160416666667,0.0,416.0160416666667
29,2009-03-04,412.59004166666665,0.0,412.59004166666665
29,2009-03-05,416.2323333333333,0.0,416.2323333333333
29,2009-03-06,388.4137083333333,0.0,388.4137083333333
29,2009-03-07,278.13045833333337,0.0,278.13045833333337
29,2009-03-08,237.86908333333335,0.0,237.86908333333335
29,2009-03-09,415.71095833333334,0.0,415.71095833333334